User: anonymous   Login
Location: Presov
(49.0000°N, 21.2500°E)
Time: 09:02:59
(UTC+02:00)
Language:

Hubble Space Telescope - Orbit

View from above orbital plane
View from above orbital plane
View from above satellite
View from above satellite

Ground track
Ground track

The orbit data is extracted from the following two-line orbital elements,

1 20580U 90037B   24141.49951781  .00008641  00000-0  41117-3 0  9996
2 20580  28.4671 170.5879 0002810  98.0074 262.0837 15.17393673672829
Epoch (UTC): 20 May 2024 11:59:18
Eccentricity: 0.0002810
inclination: 28.4671°
perigee height: 512 km
apogee height: 515 km
right ascension of ascending node: 170.5879°
argument of perigee: 98.0074°
revolutions per day: 15.17393673
mean anomaly at epoch: 262.0837°
orbit number at epoch: 67282

The dashed part of the orbit path shows where the satellite is in the earth's shadow,  

DLR